MSC1042 HEMA-HECA

Flight info

Callsign MSC1042
Flight time 0h 56m
Altitude 34000
Route MAK V730 HGD V603 GIDID DCT KAPIT L677 CVO
Aircraft A320/M-SDE3FGHIRWY/LB1

Departure

Time 2026-04-24 15:24
Airport Marsa Alam International Airport (HEMA)

Arrival

Time 2026-04-24 16:20
Airport Cairo International Airport (HECA)
Time Latitude Longitude Altitude Speed Heading
2026-04-24 15:04 25.55391 34.59158 241 ft 0 kts 59°
2026-04-24 15:13 25.55391 34.59157 241 ft 0 kts 59°
2026-04-24 15:14 25.55391 34.59158 242 ft 0 kts 59°
2026-04-24 15:14 25.55388 34.59150 243 ft 2 kts 59°
2026-04-24 15:15 25.55380 34.59136 244 ft 2 kts 60°
2026-04-24 15:15 25.55372 34.59121 246 ft 2 kts 65°
2026-04-24 15:15 25.55368 34.59105 247 ft 2 kts 82°
2026-04-24 15:15 25.55367 34.59089 247 ft 2 kts 96°
2026-04-24 15:16 25.55370 34.59072 247 ft 2 kts 110°
2026-04-24 15:16 25.55377 34.59058 247 ft 2 kts 124°
2026-04-24 15:16 25.55387 34.59045 247 ft 2 kts 139°
2026-04-24 15:16 25.55395 34.59038 247 ft 0 kts 148°
2026-04-24 15:17 25.55399 34.59036 247 ft 0 kts 150°
2026-04-24 15:19 25.55397 34.59037 247 ft 1 kts 151°
2026-04-24 15:19 25.55375 34.59050 247 ft 5 kts 151°
2026-04-24 15:19 25.55339 34.59073 246 ft 8 kts 151°
2026-04-24 15:19 25.55275 34.59114 245 ft 11 kts 150°
2026-04-24 15:20 25.55209 34.59131 245 ft 9 kts 215°
2026-04-24 15:20 25.55174 34.59072 248 ft 8 kts 240°
2026-04-24 15:20 25.55146 34.59018 250 ft 7 kts 240°
2026-04-24 15:20 25.55110 34.58995 252 ft 6 kts 173°
2026-04-24 15:21 25.55063 34.59021 252 ft 8 kts 151°
2026-04-24 15:21 25.55003 34.59057 251 ft 10 kts 150°
2026-04-24 15:21 25.54932 34.59103 251 ft 12 kts 149°
2026-04-24 15:21 25.54848 34.59159 251 ft 14 kts 150°
2026-04-24 15:22 25.54750 34.59218 249 ft 17 kts 151°
2026-04-24 15:22 25.54666 34.59266 248 ft 12 kts 171°
2026-04-24 15:22 25.54610 34.59213 251 ft 10 kts 242°
2026-04-24 15:23 25.54563 34.59106 256 ft 1 kts 293°
2026-04-24 15:23 25.54772 34.58976 260 ft 73 kts 332°
2026-04-24 15:23 25.55454 34.58539 286 ft 148 kts 333°
2026-04-24 15:24 25.58318 34.56779 2551 ft 164 kts 332°
2026-04-24 15:25 25.60683 34.55872 3521 ft 202 kts 347°
2026-04-24 15:25 25.63653 34.55042 4743 ft 238 kts 345°
2026-04-24 15:26 25.69008 34.53421 6898 ft 283 kts 343°
2026-04-24 15:27 25.74811 34.51617 9778 ft 300 kts 342°
2026-04-24 15:27 25.81261 34.49598 11888 ft 348 kts 342°
2026-04-24 15:28 25.91331 34.46457 14607 ft 391 kts 341°
2026-04-24 15:29 25.96600 34.44810 16229 ft 399 kts 341°
2026-04-24 15:30 26.04752 34.42297 18548 ft 411 kts 341°
2026-04-24 15:31 26.16024 34.38822 21226 ft 428 kts 340°
2026-04-24 15:32 26.27745 34.35198 23595 ft 444 kts 340°
2026-04-24 15:33 26.39419 34.31574 25701 ft 456 kts 340°
2026-04-24 15:33 26.48688 34.28697 27099 ft 466 kts 340°
2026-04-24 15:34 26.54986 34.26735 27952 ft 470 kts 340°
2026-04-24 15:35 26.64432 34.23795 29578 ft 466 kts 340°
2026-04-24 15:35 26.70684 34.21843 30562 ft 464 kts 340°
2026-04-24 15:35 26.73812 34.20869 31041 ft 463 kts 339°
2026-04-24 15:36 26.76833 34.19778 31510 ft 459 kts 335°
2026-04-24 15:36 26.82631 34.16789 32340 ft 453 kts 325°
2026-04-24 15:36 26.85279 34.14950 32718 ft 450 kts 320°
2026-04-24 15:37 26.87807 34.12865 33097 ft 447 kts 316°
2026-04-24 15:37 26.90127 34.10612 33391 ft 445 kts 311°
2026-04-24 15:37 26.92365 34.08168 33678 ft 445 kts 309°
2026-04-24 15:37 26.94539 34.05731 33761 ft 446 kts 309°
2026-04-24 15:38 26.98905 34.00813 33774 ft 447 kts 310°
2026-04-24 15:38 27.03298 33.95890 33766 ft 448 kts 309°
2026-04-24 15:39 27.07702 33.90957 33762 ft 447 kts 309°
2026-04-24 15:39 27.12223 33.86082 33773 ft 451 kts 315°
2026-04-24 15:40 27.17454 33.82065 33785 ft 458 kts 326°
2026-04-24 15:40 27.23344 33.79255 33776 ft 466 kts 338°
2026-04-24 15:41 27.29733 33.77746 33778 ft 473 kts 346°
2026-04-24 15:41 27.36236 33.76761 33783 ft 473 kts 347°
2026-04-24 15:42 27.42804 33.75779 33766 ft 472 kts 348°
2026-04-24 15:42 27.49298 33.74784 33777 ft 472 kts 347°
2026-04-24 15:43 27.55818 33.73777 33778 ft 471 kts 347°
2026-04-24 15:43 27.62345 33.72766 33773 ft 471 kts 348°
2026-04-24 15:44 27.68875 33.71759 33781 ft 470 kts 348°
2026-04-24 15:44 27.75073 33.70793 33777 ft 469 kts 348°
2026-04-24 15:45 27.81559 33.69786 33774 ft 470 kts 348°
2026-04-24 15:45 27.88047 33.68773 33761 ft 469 kts 348°
2026-04-24 15:46 27.94491 33.67769 33773 ft 469 kts 348°
2026-04-24 15:46 28.00978 33.66754 33777 ft 469 kts 348°
2026-04-24 15:47 28.07490 33.65733 33777 ft 468 kts 348°
2026-04-24 15:47 28.12229 33.64977 33779 ft 467 kts 347°
2026-04-24 15:48 28.19523 33.62731 33778 ft 461 kts 335°
2026-04-24 15:48 28.25208 33.59555 33781 ft 455 kts 325°
2026-04-24 15:49 28.30348 33.55303 33782 ft 451 kts 317°
2026-04-24 15:49 28.35106 33.50733 33782 ft 451 kts 316°
2026-04-24 15:50 28.39811 33.46190 33787 ft 451 kts 316°
2026-04-24 15:50 28.44090 33.42069 33788 ft 452 kts 317°
2026-04-24 15:51 28.48900 33.37439 33788 ft 452 kts 317°
2026-04-24 15:51 28.53474 33.33035 33792 ft 451 kts 316°
2026-04-24 15:52 28.58270 33.28411 33789 ft 450 kts 316°
2026-04-24 15:52 28.63044 33.23804 33787 ft 450 kts 316°
2026-04-24 15:53 28.67827 33.19186 33785 ft 451 kts 316°
2026-04-24 15:53 28.72570 33.14595 33786 ft 450 kts 316°
2026-04-24 15:54 28.77379 33.09934 33778 ft 451 kts 316°
2026-04-24 15:54 28.82048 33.05406 33779 ft 451 kts 317°
2026-04-24 15:55 28.86806 33.00786 33771 ft 451 kts 317°
2026-04-24 15:55 28.91233 32.96481 33773 ft 451 kts 317°
2026-04-24 15:56 28.96234 32.91613 33764 ft 451 kts 317°
2026-04-24 15:56 29.01000 32.86968 33757 ft 450 kts 317°
2026-04-24 15:57 29.05786 32.82299 33760 ft 452 kts 317°
2026-04-24 15:57 29.10572 32.77617 33765 ft 453 kts 316°
2026-04-24 15:58 29.13989 32.74272 33758 ft 453 kts 316°
2026-04-24 15:58 29.20052 32.68328 33460 ft 452 kts 316°
2026-04-24 15:59 29.22424 32.66002 33188 ft 450 kts 316°
2026-04-24 15:59 29.24781 32.63672 32596 ft 449 kts 315°
2026-04-24 15:59 29.27050 32.61248 31756 ft 447 kts 312°
2026-04-24 15:59 29.29135 32.58779 30831 ft 446 kts 309°
2026-04-24 16:00 29.31170 32.56092 29875 ft 446 kts 307°
2026-04-24 16:00 29.33092 32.53336 28854 ft 446 kts 305°
2026-04-24 16:00 29.34992 32.50567 27771 ft 448 kts 305°
2026-04-24 16:00 29.36909 32.47762 27012 ft 445 kts 305°
2026-04-24 16:01 29.38804 32.44991 26363 ft 442 kts 304°
2026-04-24 16:01 29.40686 32.42240 25704 ft 438 kts 305°
2026-04-24 16:01 29.42544 32.39522 25042 ft 433 kts 304°
2026-04-24 16:01 29.44408 32.36798 24367 ft 428 kts 304°
2026-04-24 16:02 29.46228 32.34138 23698 ft 423 kts 304°
2026-04-24 16:02 29.48032 32.31495 23032 ft 418 kts 304°
2026-04-24 16:02 29.49792 32.28917 22393 ft 413 kts 304°
2026-04-24 16:02 29.51555 32.26331 21735 ft 409 kts 304°
2026-04-24 16:03 29.53293 32.23779 21091 ft 404 kts 304°
2026-04-24 16:03 29.55008 32.21261 20444 ft 400 kts 304°
2026-04-24 16:03 29.56713 32.18757 19792 ft 395 kts 304°
2026-04-24 16:03 29.58379 32.16309 19136 ft 392 kts 304°
2026-04-24 16:04 29.60062 32.13835 18490 ft 388 kts 304°
2026-04-24 16:04 29.61700 32.11424 17864 ft 385 kts 304°
2026-04-24 16:04 29.63336 32.09014 17232 ft 382 kts 304°
2026-04-24 16:04 29.64957 32.06624 16597 ft 379 kts 304°
2026-04-24 16:05 29.68166 32.01891 15339 ft 375 kts 305°
2026-04-24 16:05 29.69773 31.99519 14683 ft 373 kts 305°
2026-04-24 16:06 29.72939 31.94843 13415 ft 369 kts 305°
2026-04-24 16:06 29.74487 31.92556 12775 ft 366 kts 306°
2026-04-24 16:06 29.77588 31.87966 11609 ft 356 kts 306°
2026-04-24 16:07 29.79079 31.85737 11190 ft 345 kts 305°
2026-04-24 16:07 29.80481 31.83565 10890 ft 332 kts 304°
2026-04-24 16:07 29.83115 31.79441 10353 ft 309 kts 304°
2026-04-24 16:08 29.84363 31.77488 10137 ft 298 kts 305°
2026-04-24 16:08 29.86747 31.73761 9607 ft 284 kts 305°
2026-04-24 16:09 29.89075 31.70118 8818 ft 283 kts 305°
2026-04-24 16:09 29.90248 31.68284 8421 ft 282 kts 306°
2026-04-24 16:09 29.91255 31.66367 8025 ft 281 kts 293°
2026-04-24 16:09 29.91794 31.64215 7630 ft 280 kts 279°
2026-04-24 16:10 29.92534 31.57557 6381 ft 280 kts 278°
2026-04-24 16:11 29.93017 31.53132 5594 ft 278 kts 278°
2026-04-24 16:11 29.93264 31.50915 5204 ft 278 kts 279°
2026-04-24 16:11 29.93510 31.48729 4826 ft 277 kts 279°
2026-04-24 16:12 29.94007 31.44320 4044 ft 276 kts 280°
2026-04-24 16:12 29.94253 31.42134 3726 ft 273 kts 280°
2026-04-24 16:12 29.94663 31.38479 3595 ft 250 kts 280°
2026-04-24 16:13 29.94919 31.36194 3526 ft 235 kts 281°
2026-04-24 16:13 29.95318 31.32642 3406 ft 213 kts 281°
2026-04-24 16:14 29.95711 31.29162 2692 ft 221 kts 281°
2026-04-24 16:14 29.95902 31.27453 2518 ft 205 kts 282°
2026-04-24 16:14 29.97408 31.25506 2503 ft 165 kts
2026-04-24 16:15 29.98154 31.25636 2523 ft 162 kts 18°
2026-04-24 16:15 30.00349 31.27208 2508 ft 159 kts 44°
2026-04-24 16:16 30.01825 31.28979 2571 ft 148 kts 48°
2026-04-24 16:16 30.02469 31.29812 2512 ft 129 kts 49°
2026-04-24 16:17 30.04055 31.31923 2060 ft 111 kts 49°
2026-04-24 16:17 30.05062 31.33272 1787 ft 110 kts 48°
2026-04-24 16:18 30.06062 31.34609 1512 ft 110 kts 47°
2026-04-24 16:18 30.07063 31.35945 1232 ft 109 kts 47°
2026-04-24 16:18 30.07560 31.36607 1083 ft 109 kts 47°
2026-04-24 16:19 30.08543 31.37930 770 ft 108 kts 46°
2026-04-24 16:19 30.09033 31.38592 612 ft 108 kts 46°
2026-04-24 16:20 30.10027 31.39906 421 ft 108 kts 45°
2026-04-24 16:20 30.10782 31.40902 389 ft 49 kts 48°
2026-04-24 16:20 30.10998 31.41191 389 ft 44 kts 49°
2026-04-24 16:21 30.11380 31.41583 389 ft 23 kts 18°
2026-04-24 16:21 30.11493 31.41625 389 ft 15 kts 14°
2026-04-24 16:21 30.11563 31.41563 389 ft 15 kts 261°
2026-04-24 16:22 30.11500 31.41459 388 ft 16 kts 230°
2026-04-24 16:22 30.11339 31.41247 388 ft 18 kts 227°
2026-04-24 16:22 30.11252 31.41132 389 ft 19 kts 229°
2026-04-24 16:23 30.11160 31.41009 388 ft 20 kts 229°
2026-04-24 16:23 30.11065 31.40879 388 ft 21 kts 230°
2026-04-24 16:23 30.10963 31.40749 388 ft 22 kts 227°
2026-04-24 16:24 30.10755 31.40473 388 ft 23 kts 229°
2026-04-24 16:24 30.10648 31.40330 388 ft 23 kts 229°
2026-04-24 16:24 30.10536 31.40182 388 ft 24 kts 229°
2026-04-24 16:24 30.10424 31.40034 388 ft 24 kts 229°
2026-04-24 16:25 30.10308 31.39883 388 ft 25 kts 229°
2026-04-24 16:25 30.10193 31.39728 388 ft 25 kts 229°
2026-04-24 16:25 30.10125 31.39637 388 ft 12 kts 239°
2026-04-24 16:26 30.10234 31.39631 388 ft 14 kts 48°
2026-04-24 16:26 30.10303 31.39719 388 ft 15 kts 48°
2026-04-24 16:26 30.10476 31.39767 388 ft 14 kts 345°
2026-04-24 16:27 30.10581 31.39736 388 ft 16 kts 345°
2026-04-24 16:27 30.10637 31.39683 388 ft 11 kts 270°
2026-04-24 16:27 30.10616 31.39588 388 ft 12 kts 256°
2026-04-24 16:27 30.10607 31.39496 387 ft 11 kts 302°
2026-04-24 16:28 30.10682 31.39464 387 ft 12 kts 345°
2026-04-24 16:28 30.10746 31.39441 387 ft 4 kts 293°
2026-04-24 16:28 30.10733 31.39352 387 ft 2 kts 255°
2026-04-24 16:29 30.10731 31.39345 387 ft 0 kts 255°